Printer-friendly version

IAU Minor Planet Center

Minor Planet Center

MPEC 2008-M49 : 2008 MN1

The following Minor Planet Electronic Circular may be linked-to from your own Web pages, but must not otherwise be redistributed electronically.


Read MPEC 2008-M48 Read MPEC 2008-N01


M.P.E.C. 2008-M49                                Issued 2008 June 30, 17:02 UT

     The Minor Planet Electronic Circulars contain information on unusual
         minor planets and routine data on comets.  They are published
   on behalf of Commission 20 of the International Astronomical Union by the
          Minor Planet Center, Smithsonian Astrophysical Observatory,
                          Cambridge, MA 02138, U.S.A.

             Prepared using the Tamkin Foundation Computer Network

                              MPC@CFA.HARVARD.EDU
          URL http://www.cfa.harvard.edu/iau/mpc.html  ISSN 1523-6714

                                   2008 MN1

Observations:
     K08M01N* C2008 06 29.63168 23 00 26.49 -16 38 35.2          19.2 V EM049E12
     K08M01N  C2008 06 29.64233 23 00 30.99 -16 39 54.8          18.6 V EM049E12
     K08M01N  C2008 06 29.65303 23 00 35.49 -16 41 15.2          18.9 V EM049E12
     K08M01N  C2008 06 29.66373 23 00 39.99 -16 42 36.1          19.0 V EM049E12
     K08M01N  C2008 06 29.76781 23 01 23.76 -16 55 38.5          18.9 R EM049E12
     K08M01N  C2008 06 29.76977 23 01 24.59 -16 55 53.5          18.7 R EM049E12
     K08M01N  C2008 06 29.83752 23 01 53.15 -17 04 22.2          18.6 R EM049E12
     K08M01N  C2008 06 30.33247 23 05 33.80 -18 07 37.9          19.4 R EM049734
     K08M01N  C2008 06 30.33456 23 05 34.60 -18 07 52.5          19.3 R EM049734
     K08M01N  C2008 06 30.33666 23 05 35.59 -18 08 09.4          19.6 R EM049734
     K08M01N  C2008 06 30.33954 23 05 36.82 -18 08 31.2          19.1 R EM049734
     K08M01N  C2008 06 30.37490 23 05 52.65 -18 12 59.5          18.9 R EM049H01
     K08M01N  C2008 06 30.37562 23 05 52.96 -18 13 05.3          19.0 R EM049H01
     K08M01N  C2008 06 30.37997 23 05 54.87 -18 13 38.9          18.9 R EM049H01
     K08M01N  C2008 06 30.39641 23 06 02.06 -18 15 45.5          18.9 R EM049H01
     K08M01N  C2008 06 30.39859 23 06 03.00 -18 16 02.3          18.9 R EM049H01
     K08M01N 5C2008 06 30.46597 23 06 32.81 -18 24 41.4          19.1 R EM049673
     K08M01N 5C2008 06 30.47095 23 06 34.98 -18 25 19.1                 EM049673
     K08M01N 5C2008 06 30.47525 23 06 36.91 -18 25 53.4                 EM049673
     K08M01N 5C2008 06 30.48093 23 06 39.40 -18 26 37.0                 EM049673
     K08M01N  C2008 06 30.53391 23 07 04.42 -18 32 34.5                 EM049474
     K08M01N  C2008 06 30.53495 23 07 04.91 -18 32 43.1          19.0 R EM049474
     K08M01N  C2008 06 30.53588 23 07 05.33 -18 32 49.9                 EM049474
     K08M01N  C2008 06 30.53692 23 07 05.79 -18 32 58.0          19.0 R EM049474
     K08M01N  C2008 06 30.62640 23 07 46.38 -18 44 36.8          18.9 V EM049E12
     K08M01N  C2008 06 30.64090 23 07 52.82 -18 46 28.9          19.7 V EM049E12
     K08M01N  C2008 06 30.65565 23 07 59.41 -18 48 24.7          18.7 V EM049E12
     K08M01N  C2008 06 30.67025 23 08 05.89 -18 50 17.3          18.4 V EM049E12

Observer details:
474 Mount John Observatory, Lake Tekapo.  Observer A. C. Gilmore.  Measurer
    P. M. Kilmartin.  1.0-m f/7.7 reflector + CCD.
673 Table Mountain Observatory, Wrightwood.  Observer J. Young.  0.61-m f/16
    Cassegrain + CCD.
734 Farpoint Observatory.  Observer G. Hug.  0.7-m reflector + CCD.
E12 Siding Spring Survey.  Observers R. H. McNaught, G. J. Garradd.  Measurers
    E. C. Beshore, A. Boattini, G. J. Garradd, A. R. Gibbs, A. D. Grauer,
    R. E. Hill, R. A. Kowalski, S. M. Larson, R. H. McNaught.  0.5-m Uppsala
    Schmidt + CCD.
H01 Magdalena Ridge Observatory, Socorro.  Observer W. H. Ryan.  2.4-m f/8.9
    reflector + CCD.

Orbital elements:
2008 MN1                                                 Earth MOID = 0.1408 AU
Epoch 2008 May 14.0 TT = JDT 2454600.5                  MPC
M 293.45039              (2000.0)            P               Q
n   0.61088093     Peri.  243.66062     +0.80995572     +0.09109971
a   1.3756195      Node   106.12448     +0.00608236     +0.98650475
e   0.2460854      Incl.   37.09211     -0.58645950     +0.13604861
P   1.61           H   20.1           G   0.15           U   8
Residuals in seconds of arc
080629 E12  0.1+  0.2-    080630 734  0.2+  0.0     080630 474  0.6-  0.4+
080629 E12  0.2+  0.3+    080630 H01  0.2-  0.8+    080630 474  0.2-  0.2-
080629 E12  0.1-  0.3+    080630 H01  0.3-  0.5+    080630 474  0.1-  0.2+
080629 E12  0.2-  0.1-    080630 H01  0.2-  0.4+    080630 474  0.2-  0.2+
080629 E12  0.2-  0.1-    080630 H01  0.2-  0.4+    080630 E12  0.2-  0.2-
080629 E12  0.1-  0.3-    080630 H01  0.3-  0.4+    080630 E12  0.3-  0.4+
080629 E12  0.2-  0.2-    080630 673  0.1-  0.3-    080630 E12  0.2+  0.8-
080630 734  1.3+  1.1-    080630 673  0.2-  0.4+    080630 E12  0.2+  0.1+
080630 734  0.4-  0.4+    080630 673  0.5+  0.8-
080630 734  0.6+  0.3-    080630 673  0.6+  0.6-

Ephemeris:
2008 MN1                 a,e,i = 1.38, 0.25, 37                  q = 1.0371
Date    TT    R. A. (2000) Decl.     Delta      r     Elong.  Phase     V
2008 06 23    22 19.83   -04 42.4    0.288    1.174   116.6    50.7    19.6
2008 07 03    23 26.81   -23 59.3    0.232    1.141   117.0    52.5    19.1
2008 07 13    01 14.92   -45 06.6    0.235    1.111   107.9    60.5    19.3
2008 07 23    03 26.26   -55 00.1    0.290    1.086    96.1    68.5    20.0
2008 08 02    05 04.14   -55 55.2    0.368    1.065    87.5    72.3    20.6
2008 08 12    06 02.20   -54 21.7    0.450    1.049    81.9    73.0    21.0
2008 08 22    06 37.76   -52 32.6    0.527    1.040    78.1    72.1    21.3
2008 09 01    07 01.60   -50 54.4    0.593    1.037    75.7    70.6    21.5
2008 09 11    07 18.74   -49 29.0    0.645    1.041    74.6    68.7    21.7
2008 09 21    07 31.63   -48 13.4    0.681    1.052    74.5    66.9    21.7
2008 10 01    07 41.31   -47 06.0    0.700    1.069    75.5    65.1    21.8
2008 10 11    07 47.94   -46 02.8    0.701    1.091    77.7    63.4    21.8
2008 10 21    07 51.30   -44 58.3    0.685    1.117    81.1    61.6    21.7
2008 10 31    07 50.61   -43 44.2    0.654    1.148    85.8    59.6    21.6
2008 11 10    07 44.71   -42 03.8    0.609    1.181    92.1    56.9    21.4
2008 11 20    07 32.31   -39 29.3    0.556    1.216   100.2    53.1    21.2
2008 11 30    07 12.29   -35 15.1    0.499    1.253   110.7    47.4    20.9
2008 12 10    06 45.00   -28 16.3    0.450    1.290   123.8    39.4    20.5
2008 12 20    06 13.51   -17 47.3    0.419    1.327   138.5    29.4    20.1
2008 12 30    05 43.07   -04 40.4    0.423    1.364   149.2    21.7    20.0
2009 01 09    05 18.88   +08 16.0    0.467    1.400   147.5    22.2    20.2
2009 01 19    05 03.34   +18 44.9    0.546    1.435   137.5    27.6    20.8
2009 01 29    04 56.38   +26 26.6    0.650    1.468   126.6    32.6    21.4
2009 02 08    04 56.88   +31 58.2    0.768    1.500   116.9    35.9    21.9

Timothy B. Spahr             (C) Copyright 2008 MPC           M.P.E.C. 2008-M49

Read MPEC 2008-M48 Read MPEC 2008-N01


Our Web policy. Index to the CBAT/MPC/ICQ pages.


Valid HTML 4.01!